This demonstration page uses our WeatherBlox Daily Observations layout. Learn more.

Left ArrowRight Arrow

41.12389, -100.76542

Hourly Observations for December 11, 2016

Temp ( °F °C ) Dew Point ( °F °C ) Humidity (%) Winds ( mph kmh ) Pressure ( in mb ) Visibility ( mi km ) Precip ( " mm )
12:53 am 00:53 Clear 26 -3.3 23 -5 88 88 SSW 3 6 29.74 1007 10 16 0.00 0.00
1:53 am 01:53 Clear 21 -6.1 19 -7.2 92 92 WNW 8 13 29.77 1008 7 11 0.00 0.00
2:53 am 02:53 Partly Cloudy 26 -3.3 23 -5 88 88 WNW 6 9 29.79 1009 10 16 0.00 0.00
3:53 am 03:53 Cloudy 25 -3.9 17 -8.3 72 72 NNW 18 30 29.82 1010 10 16 0.00 0.00
4:53 am 04:53 Cloudy 24 -4.4 15 -9.4 68 68 N 12 19 29.83 1010 10 16 0.00 0.00
5:53 am 05:53 Cloudy 26 -3.3 17 -8.3 69 69 NNW 13 20 29.84 1011 10 16 0.00 0.00
6:53 am 06:53 Cloudy 25 -3.9 16 -8.9 69 69 NNW 15 24 29.88 1012 10 16 0.00 0.00
7:53 am 07:53 Cloudy 24 -4.4 15 -9.4 68 68 N 8 13 29.93 1014 10 16 0.00 0.00
8:53 am 08:53 Mostly Sunny 24 -4.4 15 -9.4 68 68 undefined N/A 29.97 1015 10 16 0.00 0.00
9:53 am 09:53 Sunny 24 -4.4 14 -10 65 65 N 8 13 30.01 1016 10 16 0.00 0.00
10:53 am 10:53 Sunny 27 -2.8 14 -10 58 58 NW 9 15 30.06 1018 10 16 0.00 0.00
11:53 am 11:53 Sunny 30 -1.1 14 -10 51 51 NNW 9 15 30.04 1017 10 16 0.00 0.00
12:53 pm 12:53 Sunny 32 0 13 -10.6 45 45 NNW 9 15 30.02 1017 10 16 0.00 0.00
1:53 pm 13:53 Mostly Cloudy 37 2.8 14 -10 39 39 NW 12 19 30.01 1016 10 16 0.00 0.00
2:53 pm 14:53 Mostly Cloudy 38 3.3 14 -10 37 37 WNW 10 17 30.00 1016 10 16 0.00 0.00
3:53 pm 15:53 Cloudy 39 3.9 14 -10 36 36 WNW 12 19 30.01 1016 10 16 0.00 0.00
4:53 pm 16:53 Cloudy 36 2.2 15 -9.4 42 42 W 8 13 30.03 1017 10 16 0.00 0.00
5:53 pm 17:53 Mostly Cloudy 30 -1.1 17 -8.3 58 58 WSW 8 13 30.05 1018 10 16 0.00 0.00
6:53 pm 18:53 Clear 25 -3.9 16 -8.9 69 69 NNW 3 6 30.07 1018 10 16 0.00 0.00
7:53 pm 19:53 Clear 22 -5.6 15 -9.4 75 75 NNW 5 7 30.07 1018 10 16 0.00 0.00
8:53 pm 20:53 Clear 18 -7.8 13 -10.6 81 81 E 3 6 30.08 1019 10 16 0.00 0.00
9:53 pm 21:53 Clear 16 -8.9 12 -11.1 84 84 SE 5 7 30.09 1019 10 16 0.00 0.00
10:53 pm 22:53 Clear 15 -9.4 11 -11.7 84 84 Calm 30.10 1019 10 16 0.00 0.00
11:53 pm 23:53 Clear 13 -10.6 9 -12.8 84 84 E 3 6 30.09 1019 10 16 0.00 0.00

Powered by AerisWeather